Printer-friendly version
Follow the MPC on Twitter Follow the MPC on Facebook The MPC blog
Minor Planet Center

MPEC 2004-V19 : 2003 AL18

The following Minor Planet Electronic Circular may be linked-to from your own Web pages, but must not otherwise be redistributed electronically.

A form allowing access to any MPEC is at the bottom of this page.


Read MPEC 2004-V18 Read MPEC 2004-V20


M.P.E.C. 2004-V19                                Issued 2004 Nov. 5, 00:00 UT

     The Minor Planet Electronic Circulars contain information on unusual
         minor planets and routine data on comets.  They are published
   on behalf of Commission 20 of the International Astronomical Union by the
          Minor Planet Center, Smithsonian Astrophysical Observatory,
                          Cambridge, MA 02138, U.S.A.

                  Supported in part by the Brinson Foundation
             Prepared using the Tamkin Foundation Computer Network

                              MPC@CFA.HARVARD.EDU
          URL http://cfa-www.harvard.edu/iau/mpc.html  ISSN 1523-6714

                                   2003 AL18

                           Revision to MPEC 2003-A53

Additional Observations:
     K03A18L  C2004 10 21.55435 05 13 20.55 +46 52 50.9                 EV019F65
     K03A18L  C2004 10 21.55684 05 13 20.52 +46 52 52.2                 EV019F65
     K03A18L  C2004 10 21.55910 05 13 20.50 +46 52 53.5                 EV019F65
     K03A18L  C2004 10 21.56143 05 13 20.48 +46 52 54.6                 EV019F65
     K03A18L  C2004 11 03.52522 05 06 13.46 +48 46 31.5                 EV019F65
     K03A18L  C2004 11 03.52707 05 06 13.34 +48 46 32.4                 EV019F65
     K03A18L  C2004 11 03.52898 05 06 13.23 +48 46 33.8                 EV019F65
     K03A18L  C2004 11 03.53084 05 06 13.07 +48 46 34.7                 EV019F65

Observer details:
F65 Haleakala-Faulkes Telescope North.  Observers A. Fitzsimmons, S. C. Lowry,
    C. Snodgrass, L. O'Donnell.  2.0-m f/10 reflector + CCD, 2.0-m f/10.0
    reflector + CCD.

First and last observations above in comparison with prediction:
Residuals in seconds of arc, reference and Delta-T
041021 F65  0.8-  0.3+    041103 F65  1.1-  0.6+    MPO 50731   +0.00058 day

Orbital elements:
2003 AL18
Epoch 2005 Jan. 30.0 TT = JDT 2453400.5                 MPC
M 301.39841              (2000.0)            P               Q
n   0.45085067     Peri.  246.42496     -0.91731729     +0.34543276
a   1.6844091      Node   313.11640     -0.18644696     -0.81207924
e   0.4165812      Incl.   15.73863     -0.35180465     -0.47032277
P   2.19           H   17.9           G   0.15           U   1
Residuals in seconds of arc
030107 704  0.7-  0.2+    030125 560  0.3-  3.0-    030206 355  0.4-  0.3-
030107 704  0.4+  0.4+    030125 560  0.1-  2.5-    030206 355  0.4-  0.4-
030107 704  0.1-  0.1+    030125 560  0.1-  2.9-    030206 355  0.3-  0.1-
030107 704  0.2-  0.4+    030126 699  0.3+  0.1-    030206 355  0.0   0.3-
030107 704  0.6-  0.2+    030126 699  0.3+  0.1-    030206 552  0.0   0.0
030108 J95  0.2-  0.1+    030126 699  0.3+  0.5+    030206 552  0.3+  0.1+
030108 J95  0.1-  0.2+    030126 699  0.1+  0.1-    030206 552  0.1+  0.0
030108 J95  0.1-  0.1+    030127 704  0.0   0.3-    030206 552  0.0   0.3-
030108 858  0.6-  0.1-    030127 704  0.3+  0.2-    030206 552  0.1-  0.2-
030108 858  0.2-  0.1-    030127 704  0.1+  0.4-    030206 552  0.2+  0.1-
030108 858  0.3-  0.2-    030127 704  0.2+  0.5-    030206 552  0.1+  0.2+
030108 850 (1.2+  5.7-)   030127 704  0.2+  0.5-    030206 552  0.0   0.0
030108 704  0.0   0.2-    030129 A31  1.1-  0.0     030208 704  0.2+  0.1+
030108 850  0.2-  0.2+    030129 A31  0.1+  0.7-    030208 704  0.0   0.3+
030108 704  0.3-  0.4+    030129 A31  0.2+  1.0-    030208 704  0.1+  0.1+
030108 704  0.8-  0.8-    030129 A31  0.3+  0.5+    030208 704  0.1+  0.2+
030108 850  0.5+  0.3-    030130 699  1.2+  0.5+    030208 704  0.1+  0.4+
030108 704  0.1+  0.1+    030130 699  1.1+  0.4+    030208 939  0.3-  2.6-
030108 704  0.1-  0.5-    030130 699  1.0+  0.5+    030208 939  0.0   1.1-
030108 704  0.2+  0.1+    030130 699  1.0+  0.3+    030208 939  0.2+  0.2-
030108 850  0.8-  0.3+    030131 704  0.2+  0.0     030209 639  0.0   1.1+
030108 704  0.1+  0.4-    030131 704  0.3+  0.2+    030209 639  0.2+  0.4-
030108 704  0.2-  0.1+    030131 704  0.2+  0.5+    030209 639  0.2-  0.3+
030108 704  0.0   0.3-    030131 670  0.1+  0.4-    030209 639  0.1+  0.1-
030108 704  0.2+  0.1+    030131 704  0.1+  0.3+    030209 552  0.1-  0.2+
030108 348  0.3-  0.5-    030131 704  0.2+  0.5+    030209 552  0.0   0.1-
030108 348  0.0   0.6-    030131 670  0.1-  0.4-    030209 552  0.1+  0.1+
030108 348  0.3-  0.8-    030131 670  0.2+  1.0-    030209 552  0.2-  0.1-
030108 348  0.1+  0.9-    030131 379  0.1-  0.3-    030209 552  0.1-  0.1-
030110 704  0.4+  1.1+    030131 379  0.3+  0.6-    030209 552  0.1+  0.2+
030110 704  0.2+  1.1+    030131 379  0.2-  0.5-    030209 552  0.2+  0.2+
030110 704  0.0   0.9+    030131 379  0.2-  0.1-    030209 552  0.1+  0.2-
030110 704  0.1+  1.2+    030131 379  0.5-  0.8+    030209 552  0.2+  0.1-
030110 704  0.2-  0.8+    030131 379  0.1-  0.6-    030209 552  0.2+  0.1+
030111 704  0.1-  0.1+    030131 379  0.2-  0.5-    030212 428  0.5-  0.1-
030111 704  0.0   0.2+    030131 379  0.3-  0.2-    030212 428  0.1-  0.1+
030111 704  0.3-  0.1+    030131 322  0.1-  0.3-    030212 428  0.5-  0.2-
030111 704  0.0   0.0     030131 322  0.1-  0.4-    030212 428  0.3-  0.0
030111 704  0.1-  0.0     030131 322  0.0   0.1-    030213 809  0.4-  1.5+
030112 170  0.9-  0.9+    030201 A30  0.6+  0.8-    030213 809  0.4-  0.4+
030112 170  0.5-  0.5+    030201 A30  0.5+  0.4-    030213 809  0.6-  1.0-
030112 170  0.2+  0.6+    030201 A30  0.0   0.7-    030217 809  0.4-  0.8-
030112 170  0.3-  0.8+    030201 A30  0.2-  0.6-    030217 809  0.4+  2.9+
030112 170  0.3+  0.8+    030201 A30  0.1+  0.8-    030217 809  0.2-  0.5+
030112 704  0.1+  0.5+    030201 A30  0.1+  0.8-    030220 322  0.6-  0.5-
030112 704  0.3-  0.3+    030201 A30  0.6-  0.7-    030220 322  0.3-  0.2+
030112 704  0.2-  0.4+    030202 170  1.0+  0.2-    030220 322  0.0   0.6-
030112 704  0.3-  0.2+    030202 170  0.9+  0.3+    030228 860  1.2-  0.9-
030112 084  1.6+  1.2+    030202 170  0.0   0.1+    030228 860  0.4+  0.2-
030114 711  0.6-  0.7-    030202 170  0.3+  0.6+    030228 860  0.2-  0.2-
030114 711  0.2-  0.1-    030202 118  0.1+  0.4+    030302 428  0.0   0.6+
030114 711  0.3-  0.6-    030202 118  0.1+  0.1-    030302 428  0.2-  0.3+
030115 151  0.1+  0.1+    030202 118  0.1+  0.2+    030303 428  0.1-  0.4+
030115 151  0.1+  0.4+    030202 118  0.1+  0.1+    030303 428  0.1-  0.9+
030115 151  0.0   0.2+    030202 118  0.0   0.1+    030303 428  0.2-  0.7+
030115 151  0.1-  0.4+    030202 941  0.5+  0.0     030303 428  0.1-  0.6+
030116 670  0.1-  0.0     030202 941  0.6+  0.0     030312 322  1.2-  1.2-
030116 670  0.2+  0.0     030202 941  0.1-  0.0     030312 322  0.3+  0.6+
030116 670  0.0   0.2+    030202 941  0.2+  0.2-    030312 322  0.2+  0.1-
030116 670  0.7+  0.3+    030202 941  0.3-  0.1-    030313 413  0.2+  0.4+
030117 198  0.1+  0.5-    030202 699  0.5+  0.3+    030313 413  0.2+  0.2+
030117 198  0.2+  0.3-    030202 699  0.3+  0.1-    030313 413  0.2+  0.2+
030117 198  0.1+  0.0     030202 699  0.6+  0.0     030414 413  0.2-  0.3-
030117 941  0.4-  0.0     030202 699  0.5+  0.1+    030414 413  0.1-  0.0
030117 941  0.0   0.3+    030202 704  0.0   0.5+    030414 413  0.4-  0.4-
030117 941  0.7+  0.6+    030202 704  0.0   0.3+    030602 474  0.3-  0.1-
030117 941  1.0-  0.2-    030202 704  0.1+  0.4+    030602 474  0.5-  0.0
030118 J95  0.2+  0.2+    030202 704  0.1-  0.3+    030602 474  0.4-  0.4+
030118 J95  0.0   0.2+    030202 704  0.0   0.2+    030613 859  1.4-  1.1+
030118 J95  0.3+  0.1+    030203 699  0.3-  0.3+    030613 859  0.7-  0.2-
030120 084  0.6-  0.6-    030203 704  0.0   0.2-    030613 859  0.4-  0.7+
030124 941  0.8-  0.7+    030203 699  0.1-  0.0     030614 859  0.9-  0.9+
030124 941  0.2-  0.5+    030203 704  0.1-  0.8+    030614 859  0.3-  0.2-
030124 941  0.2-  0.4+    030203 704  0.2+  0.3+    030614 859  0.5-  0.2+
030124 941  0.1+  0.3+    030203 699  0.1+  0.3+    030705 E14  0.8-  0.0
030124 941  0.2-  0.3+    030203 704  0.0   0.1+    030705 E14  0.2-  0.3-
030124 941  0.6+  0.2+    030203 699  0.6-  0.4+    030705 E14  0.4-  0.1-
030124 941  0.6+  0.1+    030203 704  0.0   0.1+    030719 859  0.1+  0.3-
030124 127  0.2+  0.2+    030203 379  0.0   0.0     030719 859  0.5-  0.7+
030124 127  0.0   0.2+    030203 379  0.4+  0.1+    030719 859  0.5-  0.4-
030124 127  0.1-  0.2+    030203 379  0.0   0.5-    030720 H72  0.2-  1.3+
030124 127  0.1-  0.2+    030203 379  0.1+  0.0     030720 H72  2.5+  0.4+
030125 445 (1.3-  3.2+)   030203 379  0.7+  0.1+    030720 H72  1.7+  1.2-
030125 445 (1.1-  3.9+)   030203 379  0.1-  0.1-    030804 474  0.2-  0.2+
030125 941  0.5+  0.2+    030205 379  0.2+  0.5+    030804 474  0.1-  0.2+
030125 941  0.7+  0.1+    030205 379  0.1-  0.1-    030804 474  0.2-  0.1+
030125 941  0.8+  0.1+    030205 379  0.1-  0.3-    041021 F65  0.1-  0.2+
030125 941  1.0+  0.3-    030205 379  0.1-  0.2-    041021 F65  0.0   0.2+
030125 639  0.5-  0.0     030205 379  0.0   0.1+    041021 F65  0.1+  0.2+
030125 639  1.2-  1.9+    030205 379  0.1+  0.2-    041021 F65  0.2+  0.0
030125 639  0.2+  0.9-    030206 379  0.0   0.3-    041103 F65  0.1+  0.0
030125 639  0.4+  0.6+    030206 379  0.2-  0.0     041103 F65  0.1+  0.0
030125 639  1.4+  0.5-    030206 379  0.2-  0.2+    041103 F65  0.1+  0.5+
030125 560  0.3-  2.6-    030206 379  0.3-  0.1+    041103 F65  0.3-  0.5+

Ephemeris:
2003 AL18                a,e,i = 1.68, 0.42, 16                  q = 0.9827
Date    TT    R. A. (2000) Decl.     Delta      r     Elong.  Phase     V
2004 11 01    05 08.44   +48 25.9    1.228    2.034   132.4    21.1    20.9
2004 11 11    04 57.11   +49 38.9    1.125    1.993   140.8    18.3    20.6
2004 11 21    04 39.12   +50 18.0    1.041    1.950   147.9    15.6    20.3
2004 12 01    04 16.25   +50 03.6    0.979    1.905   151.6    14.2    20.1
2004 12 11    03 52.19   +48 43.7    0.940    1.857   149.7    15.5    20.0
2004 12 21    03 31.44   +46 24.0    0.924    1.808   142.8    19.2    20.0
2004 12 31    03 17.12   +43 27.9    0.928    1.756   133.5    24.0    20.1
2005 01 10    03 10.18   +40 21.9    0.948    1.703   123.6    28.7    20.2
2005 01 20    03 10.24   +37 26.8    0.979    1.647   114.1    33.1    20.3
2005 01 30    03 16.24   +34 52.8    1.016    1.590   105.2    36.7    20.4
2005 02 09    03 27.14   +32 41.4    1.054    1.531    97.2    39.7    20.5
2005 02 19    03 42.12   +30 49.7    1.091    1.471    90.0    42.2    20.6
2005 03 01    04 00.48   +29 11.5    1.122    1.411    83.6    44.3    20.6
2005 03 11    04 21.70   +27 39.9    1.146    1.350    77.9    46.0    20.6
2005 03 21    04 45.42   +26 08.1    1.163    1.290    72.9    47.6    20.6
2005 03 31    05 11.27   +24 29.0    1.171    1.231    68.6    49.1    20.5
2005 04 10    05 38.99   +22 36.3    1.169    1.175    65.0    50.6    20.5
2005 04 20    06 08.33   +20 24.4    1.159    1.123    62.0    52.2    20.4

Kyle E. Smalley              (C) Copyright 2004 MPC           M.P.E.C. 2004-V19

Read MPEC 2004-V18 Read MPEC 2004-V20


MPEC number:

Enter an MPEC number in one of the following forms:

  • 1997-B01 (the full form)
  • J97B01 (the packed version of the full form)
  • B01 (the abbreviated form)

Valid HTML 4.01!